Wind_Speed
16 16 16 17 18 19 20 21 22 24 25 27 28 30 31 32 33 34 35 36 38 39 40 41 42 42 43 43 44 44 44 43 43 42 42 42 42 42 42 42 42 42 42 42 42 42 42 41 41 41 42 42 42 43 44 44 45 45 46 47 47 48 49 50 52 53 54 56 57 59 60 62 63 65 66 67 68 69 71 72 74 76 78 80 82 83
17 18 18 19 20 21 22 23 24 25 27 28 29 31 32 33 34 35 35 36 38 38 39 40 40 40 40 41 40 40 40 39 38 38 38 38 38 37 37 36 36 37 37 37 36 36 36 36 37 37 38 38 39 40 41 41 42 43 43 44 44 45 46 47 48 49 51 52 53 55 56 57 59 60 62 63 64 64 65 66 68 69 71 73 75 77
19 20 21 21 22 22 23 24 25 26 27 28 30 31 32 33 33 34 34 34 35 35 35 35 35 35 35 35 35 34 34 33 33 32 32 32 32 31 31 32 32 32 32 32 32 32 32 32 33 34 35 36 37 38 39 40 41 42 42 43 44 45 45 46 47 48 49 50 52 53 54 55 56 58 59 60 61 61 62 63 64 65 66 67 69 71
19 20 20 20 21 22 23 24 25 26 27 28 28 28 28 29 28 28 28 28 28 28 28 28 28 28 28 28 28 27 27 27 26 26 27 27 27 28 28 29 29 29 29 29 29 29 30 31 32 33 34 35 36 38 39 40 41 42 44 45 46 47 47 48 48 49 50 51 52 53 54 55 56 57 58 59 60 60 61 61 62 62 63 64 66 67
18 19 20 21 22 23 23 24 24 24 23 23 22 22 22 22 21 21 21 21 21 21 22 22 21 21 23 23 22 21 21 22 22 23 24 25 25 26 26 27 28 28 29 29 29 30 31 33 33 34 35 36 38 39 40 41 43 44 45 46 48 49 50 50 51 51 52 53 54 55 56 57 58 59 60 61 61 61 62 62 62 62 63 64 65 65
19 20 20 21 21 21 21 20 19 19 18 18 17 17 17 18 18 18 18 19 19 20 21 21 19 18 20 21 19 19 20 21 22 22 23 24 25 26 27 27 28 29 30 31 32 33 34 35 36 37 37 38 39 40 41 43 44 46 47 48 50 51 52 53 53 54 55 55 56 57 58 59 60 60 61 62 63 63 64 64 64 64 65 66 66 66
19 19 19 19 18 17 16 16 16 16 16 16 16 16 17 18 19 19 19 20 20 20 21 21 20 18 19 21 19 19 21 21 22 23 24 25 26 27 28 29 30 31 32 33 34 36 36 37 38 39 40 41 42 43 44 45 46 48 49 50 52 53 54 55 56 57 57 58 59 60 60 61 62 63 63 64 65 65 65 65 65 66 66 67 68 68
18 17 17 16 15 15 15 16 16 16 16 16 17 17 17 18 19 20 21 20 20 21 21 22 22 21 21 22 21 21 22 22 23 24 25 27 28 29 30 31 32 33 34 35 36 38 39 40 41 42 43 43 44 45 47 48 49 50 51 52 54 55 56 57 58 59 60 61 62 62 63 64 64 65 65 66 67 67 67 67 67 67 67 68 68 69
17 17 16 16 16 16 16 16 16 16 16 17 18 18 18 19 20 20 20 20 20 20 21 23 24 24 23 25 24 23 24 23 24 25 26 28 30 31 32 33 35 36 37 38 39 40 41 42 43 44 45 46 47 48 49 50 51 52 53 54 55 56 58 59 60 61 62 63 64 65 65 66 67 67 67 68 68 69 69 69 68 68 68 68 69 69
17 18 17 17 17 17 17 16 17 18 18 18 18 19 19 20 20 19 19 20 20 21 22 22 24 24 24 25 26 26 26 26 26 26 27 29 31 33 35 36 38 39 40 41 42 43 44 45 46 47 48 49 50 51 51 52 53 54 55 56 57 58 59 60 61 63 64 65 66 67 67 68 69 69 69 70 70 71 71 70 70 69 69 69 69 70
18 18 18 17 17 17 17 17 18 19 20 19 19 20 20 20 20 19 19 20 21 23 22 22 24 25 25 26 27 28 29 29 28 28 29 30 33 35 37 39 41 42 43 44 45 46 48 49 50 50 51 52 53 54 55 55 56 57 58 59 59 60 62 62 63 64 65 66 67 68 69 70 71 71 71 71 72 72 72 72 71 71 70 70 70 71
18 18 18 18 17 17 18 18 19 19 20 20 21 21 21 21 20 20 20 20 22 24 24 23 24 26 27 29 30 30 32 32 31 31 31 33 35 37 39 41 43 44 45 47 48 49 50 52 53 54 54 55 56 57 58 59 59 60 61 62 62 63 64 65 66 67 68 68 69 69 71 71 72 73 73 73 73 74 74 73 73 72 72 72 72 72
19 19 19 19 18 19 19 19 20 20 20 21 21 21 20 20 21 20 21 21 21 23 26 26 26 27 29 31 31 32 34 34 34 34 35 36 39 40 41 43 44 46 48 49 50 51 52 54 55 56 57 58 59 60 61 62 62 63 64 65 65 66 67 69 69 70 71 71 72 72 72 73 73 74 75 75 75 75 76 75 75 75 74 74 74 74
19 19 19 19 19 20 20 20 21 20 20 20 20 20 21 21 22 22 22 23 22 22 25 27 27 28 30 32 32 32 34 35 36 36 38 39 42 43 44 45 47 48 50 51 52 53 55 56 57 58 59 60 61 62 63 63 64 66 66 67 68 68 70 71 72 73 74 74 75 75 75 75 75 76 76 76 77 77 77 78 77 77 76 76 76 76
19 19 19 19 19 20 20 21 21 21 21 21 21 22 23 23 24 25 25 25 25 23 23 25 26 27 30 34 34 33 34 37 37 38 40 41 43 45 46 47 49 50 51 53 54 56 57 58 59 60 61 62 63 63 64 65 66 67 68 69 70 70 72 74 74 75 76 76 76 77 77 77 78 78 78 78 79 79 79 79 79 79 78 78 77 77
20 20 19 19 20 20 21 21 22 22 23 23 23 24 24 25 25 26 26 27 29 28 26 26 25 26 30 35 36 35 35 38 40 42 43 44 45 47 48 49 51 52 53 55 57 58 59 60 61 62 63 63 64 65 65 66 67 68 69 70 71 72 73 75 76 77 77 77 78 78 78 79 79 79 79 80 80 81 81 81 81 81 80 79 79 79
21 21 21 21 21 22 22 22 23 24 25 25 26 26 26 27 27 28 28 29 31 32 30 29 28 27 30 35 36 36 37 39 43 45 45 46 48 49 50 51 53 54 56 58 59 60 61 62 63 63 64 65 65 66 67 67 68 69 70 71 72 74 75 77 78 79 79 79 80 80 79 79 80 80 80 81 82 82 82 82 82 82 82 81 81 81
22 22 21 22 22 23 23 24 24 25 26 27 28 29 30 31 32 32 32 33 33 35 34 33 32 30 31 36 37 36 39 43 46 48 48 49 51 52 53 54 56 57 59 60 62 63 63 64 64 65 65 66 66 67 68 69 70 70 71 73 74 76 78 80 81 82 83 83 83 83 82 81 81 80 80 82 83 84 84 84 84 84 84 83 83 82
22 22 22 22 23 24 24 25 25 26 28 29 30 32 33 34 36 35 36 37 37 38 38 38 37 32 31 37 39 38 43 47 49 51 51 53 54 55 56 57 59 60 62 63 64 65 65 66 66 66 66 67 67 68 69 70 71 72 73 74 77 79 81 83 85 85 86 86 85 85 84 83 83 82 82 83 84 86 87 86 86 86 86 85 85 84
22 23 23 24 24 25 25 26 27 27 28 29 30 32 33 35 37 38 38 39 40 42 42 42 41 32 28 36 42 43 47 50 52 54 54 55 56 57 59 60 62 63 64 65 66 66 67 66 66 66 66 67 68 70 71 71 72 73 75 77 80 82 85 86 87 87 88 87 87 87 87 86 85 85 84 84 85 87 88 88 87 87 88 88 87 86
24 24 24 25 26 26 27 28 29 29 29 30 31 32 34 35 38 40 40 40 41 43 43 45 45 33 28 38 46 47 50 53 55 57 56 57 58 59 61 62 64 65 66 67 67 67 67 66 66 66 67 69 70 71 73 73 75 76 79 82 84 86 88 89 90 91 91 91 91 91 90 89 88 87 86 86 86 87 88 88 87 87 88 88 87 86
26 26 26 27 27 28 28 29 31 31 31 31 32 34 35 36 39 41 42 42 43 45 43 47 48 35 32 42 49 49 52 55 56 58 58 59 60 60 62 63 65 66 67 68 68 67 67 66 67 68 69 71 73 74 75 76 78 81 83 86 88 90 92 92 93 94 94 94 94 93 91 90 89 88 87 86 86 87 89 89 87 86 88 88 86 85
28 28 28 28 29 30 31 32 33 34 34 33 34 36 37 37 39 42 44 44 45 46 44 49 51 40 38 46 50 50 54 55 57 58 59 60 60 62 63 64 66 67 68 68 68 67 67 67 68 70 72 73 74 75 77 79 83 86 88 90 92 93 94 94 95 96 96 95 93 91 90 89 88 87 86 85 85 86 87 87 85 84 85 86 84 83
30 30 30 30 30 31 32 33 34 35 35 35 37 38 39 39 39 41 44 45 45 45 45 50 53 46 44 49 51 52 54 56 57 58 59 61 61 63 65 66 67 68 68 68 68 67 68 68 70 72 73 74 75 78 81 84 87 90 92 93 94 96 97 97 98 97 96 93 90 88 87 86 85 84 83 83 83 84 85 85 82 82 83 83 82 81
31 32 33 33 32 32 32 33 34 35 36 36 38 40 40 39 40 42 44 46 47 47 47 52 54 50 49 51 51 53 56 56 57 58 60 62 63 64 66 67 68 68 68 68 68 68 69 70 72 73 74 76 78 81 85 88 90 93 95 97 99 102 103 102 100 97 94 91 87 85 84 83 82 82 82 82 82 82 83 81 80 80 80 80 79 78
31 32 33 34 34 35 35 35 36 36 36 37 38 40 41 40 40 42 44 46 47 49 51 52 54 52 50 51 53 55 57 58 58 59 61 62 64 66 67 67 68 68 68 68 68 68 69 71 72 73 75 78 81 85 88 90 93 97 100 103 104 104 102 99 95 92 89 87 85 83 81 80 79 81 82 82 82 83 82 79 77 77 77 77 76 75
31 31 32 33 34 36 36 35 37 37 37 38 38 39 40 40 41 42 45 45 47 52 53 51 54 56 52 51 54 56 58 59 59 61 62 63 65 66 67 68 67 67 68 68 68 69 70 71 72 73 77 81 84 88 91 94 97 101 103 104 102 99 96 92 90 88 87 86 85 82 79 77 78 80 80 80 81 82 80 77 74 74 74 73 72 71
32 31 31 32 32 35 36 35 37 39 38 38 38 38 38 40 42 43 45 45 46 53 54 51 54 58 55 54 56 58 58 59 60 62 63 64 66 67 67 67 67 67 67 68 69 70 71 71 73 76 80 84 87 90 94 97 100 102 103 101 97 93 90 88 87 87 87 86 85 82 79 78 78 79 79 80 81 79 76 73 71 70 70 69 68 67
35 33 32 32 31 33 35 36 38 40 39 38 37 37 38 40 42 44 45 45 47 53 54 52 54 57 56 56 58 58 60 61 62 63 64 65 66 66 66 66 66 67 68 69 70 71 72 74 77 80 84 87 90 94 97 101 102 102 99 95 91 89 87 87 87 87 87 85 84 81 79 78 77 78 79 79 77 74 71 68 67 65 65 64 63 62
37 36 35 35 33 31 33 36 38 40 40 38 36 36 38 41 43 44 45 46 49 52 54 54 55 55 55 57 59 59 61 62 63 63 64 66 67 66 66 66 67 68 69 71 71 72 73 77 80 84 87 90 94 98 101 102 101 98 94 90 88 87 87 88 88 87 86 84 81 79 77 76 77 77 77 75 71 68 66 65 63 62 61 60 59 59
38 38 38 39 35 32 33 36 38 40 40 38 37 37 39 42 44 44 45 46 49 52 53 55 56 55 54 56 59 60 62 63 63 64 65 66 66 66 66 67 68 69 71 71 72 73 76 80 83 86 90 93 97 101 102 100 96 92 89 87 87 88 88 88 87 85 82 79 77 76 75 74 74 73 70 68 65 64 63 61 60 58 57 57 56 56
38 39 40 41 39 36 37 39 39 41 41 39 39 40 41 43 45 45 45 46 48 51 53 54 56 55 55 57 59 60 61 63 64 65 66 66 66 66 67 68 69 71 71 71 73 76 79 82 85 89 93 97 100 101 99 95 91 88 86 87 88 89 89 87 84 80 76 74 72 71 70 68 66 65 63 62 61 60 59 57 56 55 54 54 53 52
38 39 40 43 42 40 41 44 43 42 42 40 41 44 45 45 45 45 45 46 49 51 53 54 55 55 56 58 59 60 61 62 64 65 67 67 66 66 67 69 70 71 72 73 75 79 82 84 88 91 95 99 100 98 94 89 87 86 87 88 89 88 86 82 78 73 70 68 66 63 61 60 58 58 57 57 56 55 53 53 52 51 51 51 50 50
38 40 40 42 44 43 43 46 45 43 43 44 45 46 47 46 46 48 47 46 49 52 54 55 55 55 57 59 60 60 61 62 63 65 66 66 66 67 68 69 70 71 72 74 77 80 83 86 90 94 97 98 96 92 87 84 84 85 87 88 88 86 82 77 73 69 65 62 59 56 54 53 52 52 52 51 50 49 49 49 49 49 48 48 48 48
39 40 41 42 44 45 45 47 47 44 43 45 48 48 47 46 47 49 49 48 49 52 53 54 55 57 58 59 59 60 61 62 63 64 65 65 66 67 68 69 70 71 73 76 78 81 84 88 92 95 96 94 90 84 81 80 81 83 85 86 85 82 78 73 69 65 61 58 55 52 50 48 48 47 47 46 46 46 46 46 46 46 46 45 45 46
39 40 41 41 43 46 47 48 49 46 43 45 48 49 48 48 49 50 50 48 49 52 52 53 55 57 58 59 59 60 62 63 63 64 64 65 65 67 69 69 70 72 74 77 80 83 86 90 94 95 93 89 83 79 78 79 80 82 83 83 81 78 73 69 65 61 56 53 50 47 46 45 44 44 43 43 43 44 44 44 44 44 43 43 44 45
39 40 41 42 43 46 48 49 49 48 45 46 49 50 49 49 49 51 51 49 49 52 52 53 56 57 58 59 59 60 62 62 62 62 64 65 66 68 69 70 71 73 75 78 80 83 88 91 93 92 88 83 78 76 76 77 78 80 81 81 78 74 69 65 61 57 52 48 45 42 41 41 41 41 41 41 41 41 41 41 41 41 42 42 43 44
40 41 42 43 43 45 49 50 50 49 47 48 50 50 50 50 50 52 53 51 50 52 53 55 56 57 58 59 60 60 61 61 60 61 63 65 66 68 69 70 72 75 77 79 81 84 88 91 91 88 84 78 74 73 74 75 77 78 79 78 75 71 66 62 58 54 50 45 41 39 38 37 38 38 38 38 38 38 38 39 39 40 41 41 42 43
41 42 43 44 44 45 48 50 50 49 48 49 50 50 51 51 51 53 54 52 52 52 54 55 57 58 59 60 60 60 61 61 61 61 63 65 66 67 68 69 72 74 76 79 82 85 88 90 89 85 80 74 71 71 72 74 75 76 77 76 73 69 64 60 57 53 48 44 40 37 36 35 35 36 36 36 36 36 37 37 38 39 40 40 41 42
43 44 45 44 44 46 48 50 50 49 49 50 51 52 52 53 53 54 54 53 53 54 55 56 57 58 59 60 60 60 61 62 62 62 63 64 66 67 68 70 72 73 75 78 82 85 88 89 88 82 76 71 69 69 71 72 74 74 74 73 71 67 62 58 55 51 48 43 40 37 35 34 34 34 34 34 34 35 35 36 37 38 39 40 40 41
46 47 46 46 46 47 48 50 50 50 50 51 52 53 53 54 54 55 55 54 54 54 56 57 57 58 58 59 59 60 60 62 63 63 64 65 66 67 68 70 72 74 76 79 82 86 88 88 85 78 72 68 67 68 70 71 72 72 72 71 69 66 61 57 54 50 47 44 41 37 35 34 33 33 33 33 33 34 35 36 36 37 38 39 39 40
48 49 48 46 48 49 50 50 51 51 51 52 53 53 54 55 55 55 55 55 55 55 56 57 57 58 58 59 59 60 60 61 62 63 64 65 66 67 68 70 72 74 76 79 83 86 88 86 81 74 69 66 66 67 69 70 70 70 69 69 67 65 61 57 54 50 48 45 42 39 37 35 34 33 33 33 33 34 35 36 36 37 37 38 39 39
49 51 49 47 49 51 51 51 51 53 53 52 52 54 55 55 56 56 55 55 55 56 57 57 57 58 59 59 59 60 60 61 62 63 65 65 66 67 68 70 71 73 76 79 83 86 86 82 76 70 66 64 65 66 67 68 68 67 67 66 66 64 61 58 54 51 49 46 44 42 39 37 36 35 34 33 33 34 34 35 35 36 37 37 37 38
50 51 50 48 49 52 52 50 51 53 54 53 53 55 56 56 56 56 56 55 56 57 57 58 58 59 59 59 59 59 60 61 62 63 64 65 66 67 68 70 72 73 76 79 83 85 84 79 73 68 64 62 63 65 66 66 65 65 64 64 63 62 61 58 55 52 50 47 45 43 41 39 37 36 34 34 33 33 33 33 34 34 35 35 36 36
52 52 50 49 50 52 52 50 51 53 54 54 55 56 57 57 57 57 57 56 57 58 58 59 59 59 59 59 59 59 60 61 62 63 64 65 66 67 68 70 71 73 76 80 83 84 81 76 70 66 62 61 62 64 64 64 63 63 62 62 61 60 59 58 55 53 50 48 46 44 42 41 39 37 36 35 33 33 32 32 32 33 34 34 34 34
53 52 50 50 51 52 52 51 53 54 53 54 56 57 57 57 57 57 57 57 58 58 58 59 59 59 60 59 59 59 60 60 62 63 64 65 66 66 68 69 71 73 76 79 82 82 79 74 69 64 61 60 61 62 63 62 61 61 60 59 59 59 58 57 55 54 52 49 47 45 43 42 41 39 38 37 35 34 33 33 32 32 33 33 33 32
54 51 50 51 51 52 52 52 54 54 53 53 56 57 57 58 57 57 57 57 58 58 58 58 59 60 60 60 59 59 60 60 62 63 64 64 65 66 67 69 70 72 75 79 81 80 77 72 66 62 59 59 60 61 61 60 60 59 59 58 57 57 57 56 55 54 52 50 49 47 45 43 42 41 40 39 38 37 36 34 33 33 33 33 33 32
55 52 51 52 52 52 53 53 54 54 53 54 55 56 57 57 57 56 57 57 57 58 58 58 59 60 60 59 59 59 60 61 62 63 64 64 65 65 67 68 69 72 75 78 79 79 75 69 64 60 58 57 58 59 59 59 58 57 57 57 56 56 55 55 54 53 52 51 49 48 46 44 43 42 41 40 39 38 38 37 36 35 35 35 34 33
55 51 51 53 53 52 53 54 54 54 54 54 56 56 57 57 57 56 57 57 57 57 57 58 59 59 59 59 59 60 60 61 62 63 64 64 64 65 66 67 69 71 74 77 78 77 73 67 62 59 57 56 57 58 58 57 57 56 55 55 55 54 54 53 53 53 52 51 50 49 47 46 44 43 42 41 40 40 39 39 38 37 36 37 36 35
54 51 51 53 54 53 53 54 55 54 54 55 56 57 57 57 57 57 57 57 57 57 57 58 58 59 59 59 59 60 60 61 62 63 63 63 64 64 65 66 68 71 74 76 77 75 71 66 61 58 56 55 55 56 56 56 55 55 54 54 53 53 52 52 52 52 51 51 50 49 48 47 46 44 43 42 41 40 40 41 40 39 38 37 38 38
53 51 51 53 54 54 53 54 55 55 55 56 56 57 57 57 57 57 57 57 57 56 56 57 58 59 59 59 59 59 60 61 62 62 63 63 63 64 65 65 67 70 73 75 75 74 70 65 60 57 55 54 54 55 54 54 54 54 53 53 52 51 51 51 50 50 50 50 50 49 48 47 46 45 44 43 42 41 40 40 41 42 41 39 38 39
Wind_Direction
306 302 300 297 294 292 289 288 287 287 287 286 285 285 285 287 287 287 288 289 288 289 290 291 293 293 294 294 295 295 296 295 295 296 296 296 297 297 297 298 299 300 300 301 301 301 301 301 301 301 302 302 303 303 303 303 302 302 302 301 300 300 299 298 297 296 295 294 293 291 290 290 288 287 286 284 283 282 281 280 279 278 277 276 275 274
303 300 298 296 293 291 290 289 289 289 288 287 287 287 288 289 290 290 292 293 294 294 295 296 296 296 296 296 296 296 297 297 297 298 298 298 299 300 302 304 304 304 304 304 304 305 305 306 307 307 308 308 308 308 309 309 309 309 309 309 308 307 307 305 304 303 302 301 300 298 297 296 295 293 292 291 289 288 287 286 284 283 282 280 279 277
298 296 295 294 294 293 293 293 292 291 291 291 291 292 293 295 296 297 298 299 300 300 300 300 300 299 298 299 299 300 301 301 302 302 302 303 306 308 309 310 309 309 309 309 311 311 312 313 313 313 313 312 312 312 312 311 311 311 311 310 310 309 309 307 306 305 304 303 302 301 300 299 298 297 295 294 293 292 291 289 288 287 286 284 283 281
297 298 299 299 298 297 296 295 294 294 294 295 297 299 301 303 304 305 306 306 307 307 307 307 306 305 306 307 307 308 307 306 307 308 310 313 314 315 314 313 313 313 314 315 315 316 316 316 315 314 314 313 313 312 311 311 310 309 309 309 308 308 307 306 305 304 303 301 300 299 298 297 297 296 295 294 293 293 292 290 290 288 287 286 285 284
306 306 305 304 302 300 299 299 300 301 303 305 307 309 311 313 315 317 319 319 320 321 322 324 320 316 318 320 319 317 316 316 317 318 319 319 318 317 316 315 315 315 316 317 316 316 316 316 315 314 313 312 312 311 310 309 308 308 307 306 306 306 305 305 304 303 302 301 299 298 297 296 295 294 293 292 292 291 290 290 289 288 288 287 286 285
311 309 308 307 307 307 308 309 312 314 318 320 321 323 326 329 332 334 336 337 338 337 337 337 334 330 328 330 329 327 326 325 324 322 321 320 318 316 316 316 317 317 317 318 317 317 316 316 315 314 313 313 312 311 310 309 308 307 306 306 305 305 305 304 303 302 301 300 299 298 297 296 295 294 293 292 291 291 290 289 289 288 287 286 286 285
314 315 315 316 317 320 323 327 331 333 334 334 337 340 340 342 344 345 346 347 345 342 339 337 335 336 332 330 332 330 328 327 323 322 321 318 317 317 317 317 317 318 318 318 317 317 316 315 314 314 313 313 312 311 310 309 308 307 307 306 306 305 305 304 303 302 301 300 299 298 297 296 295 295 294 293 292 291 291 290 289 288 287 286 286 285
324 326 327 330 334 338 341 344 345 344 341 341 347 347 345 346 348 347 348 347 344 339 336 333 331 334 332 327 330 330 326 324 322 321 320 319 318 317 317 317 317 318 317 316 315 315 314 313 313 312 312 311 310 310 309 309 308 307 307 306 306 305 305 304 303 302 301 301 300 299 298 297 296 295 294 294 293 292 292 291 290 289 288 288 287 286
335 337 340 343 345 348 349 350 347 343 343 346 348 345 343 346 347 346 344 341 339 335 334 333 330 333 332 327 328 328 324 323 321 320 321 320 320 319 318 318 317 317 316 315 314 313 312 311 311 310 310 309 308 308 307 307 307 306 306 305 305 305 304 304 303 302 301 301 300 299 298 297 296 295 294 294 293 292 292 291 291 290 289 289 288 287
343 345 347 348 349 350 350 348 345 342 344 346 343 340 342 345 343 342 339 336 334 332 332 332 329 329 329 325 324 324 322 321 320 319 319 320 319 319 319 318 317 316 315 314 313 313 312 311 310 309 309 308 307 306 306 305 305 305 305 304 304 304 304 303 302 302 301 301 300 299 298 297 296 295 294 293 293 292 291 291 290 290 289 289 288 287
347 347 347 347 348 347 345 343 341 340 341 341 336 337 341 341 338 336 335 333 331 328 328 330 327 326 325 322 323 324 322 321 319 317 318 318 319 319 319 318 316 315 314 314 313 313 312 311 310 309 309 308 307 306 305 305 304 304 304 303 303 303 303 302 302 302 301 300 300 299 297 296 295 294 293 293 292 291 290 290 290 289 289 288 288 287
346 346 345 346 345 343 341 340 337 336 338 336 334 337 339 337 334 332 330 329 328 325 324 327 327 326 325 323 324 325 322 321 319 318 318 319 320 320 319 318 316 315 315 314 314 314 313 312 311 310 309 309 308 307 307 306 305 304 303 303 302 302 302 302 302 301 301 300 300 298 297 296 295 294 293 291 290 289 289 289 288 288 288 288 287 287
344 343 342 342 341 340 339 337 335 335 337 335 335 336 333 330 327 324 323 324 325 324 323 326 327 326 325 323 323 324 321 319 319 318 319 321 321 320 319 317 316 315 315 314 314 313 312 311 311 310 309 309 308 308 308 307 306 305 304 303 302 302 302 302 301 301 301 300 300 299 298 297 295 294 292 291 290 288 288 287 287 287 287 287 287 287
342 341 340 339 338 338 337 335 335 335 334 332 331 329 325 323 321 320 321 321 323 326 324 324 326 327 324 320 321 322 319 317 317 317 319 321 319 318 317 316 315 314 314 313 312 312 311 310 309 309 309 308 308 307 307 306 306 305 304 304 303 302 302 302 302 302 301 301 300 300 299 297 295 294 293 291 289 288 287 286 285 285 285 285 286 286
340 338 338 337 336 336 334 333 333 330 329 328 326 325 323 322 322 322 323 322 323 325 324 324 326 327 323 317 317 319 317 316 316 317 318 318 317 316 315 314 313 312 312 311 311 310 310 309 309 309 308 308 307 307 306 306 305 304 304 304 303 303 303 302 302 302 301 301 301 300 299 297 296 294 293 291 290 288 286 285 284 284 284 284 284 284
338 337 337 335 335 334 332 331 330 328 328 327 326 326 324 323 323 323 324 323 323 323 323 323 325 326 321 315 315 318 317 315 315 315 316 316 315 314 313 312 312 311 311 310 310 309 309 309 309 308 308 308 307 306 306 305 305 304 304 304 303 303 303 303 303 302 302 301 301 300 298 297 295 294 293 291 289 288 286 285 284 283 283 283 283 283
337 336 336 335 335 335 333 331 330 328 328 328 327 326 325 324 324 323 324 324 323 321 322 323 324 327 322 314 314 317 316 315 313 313 314 314 314 313 312 312 311 310 310 309 309 309 309 309 309 308 308 307 307 306 305 305 304 304 303 303 303 302 303 303 302 302 301 301 300 299 297 296 295 293 292 290 289 287 286 285 284 283 282 282 282 282
337 336 336 335 335 334 333 332 331 329 329 328 328 328 327 326 325 325 324 324 323 321 322 322 323 330 326 315 315 318 316 314 312 312 314 314 314 313 312 312 311 310 310 310 310 310 310 310 309 309 308 307 307 306 305 305 304 303 302 302 302 302 302 302 301 301 300 300 299 298 297 295 294 292 290 289 288 287 286 284 284 283 282 282 282 281
337 337 336 334 335 334 333 333 332 332 331 329 329 328 327 327 325 325 325 324 324 322 322 322 322 334 332 317 315 317 315 313 312 312 314 314 314 313 312 312 311 311 311 310 311 311 310 310 310 309 308 307 307 306 306 305 304 303 302 302 301 301 301 301 301 301 300 300 299 298 297 295 293 292 290 288 287 286 285 284 283 283 282 282 282 281
339 339 337 335 335 334 334 333 332 333 332 330 329 327 326 326 323 323 324 324 323 321 322 321 321 336 339 317 314 317 316 315 314 313 315 314 314 314 313 313 312 311 311 311 311 311 310 310 309 308 308 307 307 307 306 305 304 303 303 302 302 302 302 302 301 301 300 300 299 298 297 295 293 292 290 288 286 285 284 283 282 282 281 282 282 281
340 340 339 337 337 335 333 332 331 333 332 330 328 325 326 324 321 321 321 322 321 319 321 319 318 337 345 319 315 319 318 316 314 314 315 314 315 315 314 313 312 312 312 312 312 311 311 310 309 309 308 308 308 308 307 306 305 304 304 303 303 302 302 302 302 301 301 300 299 298 297 295 293 291 289 287 285 283 282 281 280 280 280 281 281 281
341 341 340 339 338 336 334 333 331 331 331 330 328 326 326 324 322 321 319 320 319 317 320 316 314 335 346 322 317 321 318 315 314 314 315 315 316 315 314 313 313 312 313 312 312 311 311 310 310 310 310 310 309 308 307 307 306 305 305 304 304 303 303 303 302 302 301 301 299 298 296 294 292 290 288 286 284 283 281 281 280 280 280 280 280 280
339 339 339 339 339 337 336 334 331 331 332 331 329 327 327 325 324 321 318 318 316 316 320 314 312 330 339 322 319 321 317 315 315 316 316 316 316 315 313 313 313 313 313 313 312 312 312 312 312 312 312 311 310 309 308 308 307 306 306 306 305 305 304 304 303 303 302 300 299 297 295 292 290 289 287 286 284 283 282 281 281 280 280 279 279 279
338 338 338 338 339 338 336 334 331 331 333 332 330 328 327 326 324 319 317 316 314 316 317 311 312 325 328 320 321 321 316 315 316 317 316 316 315 314 313 313 313 313 313 313 313 314 314 314 313 313 312 311 310 310 309 309 309 308 307 307 306 306 305 305 304 303 302 300 299 297 295 293 292 290 288 286 284 282 281 281 281 280 279 279 279 279
338 337 336 337 338 336 335 333 331 332 333 332 330 328 327 326 322 318 316 314 314 316 313 311 315 322 322 321 323 319 315 316 317 317 316 315 314 314 313 313 313 314 314 315 315 315 315 314 314 313 312 312 312 311 311 311 310 309 308 308 309 309 309 308 307 306 304 303 301 300 298 297 295 293 290 288 286 284 282 282 282 281 280 280 279 279
339 338 337 339 339 336 335 335 333 333 333 332 330 330 327 324 320 317 315 315 316 314 312 314 318 319 320 323 322 317 316 317 317 316 315 315 315 314 313 314 315 316 316 316 316 316 315 314 313 313 313 313 313 312 312 311 311 311 311 312 312 312 310 309 308 306 305 304 302 301 300 297 294 292 290 289 287 285 284 284 283 282 281 280 280 280
340 339 337 340 340 337 337 336 332 332 333 332 332 332 327 321 318 317 315 317 317 312 313 320 319 316 320 323 319 317 318 318 317 317 315 315 315 314 315 316 317 317 317 316 316 315 314 314 314 314 314 314 313 313 313 313 313 313 314 313 312 311 309 308 307 306 304 303 302 300 297 293 290 288 288 286 285 284 285 285 284 283 282 281 280 280
340 340 338 340 341 338 336 335 332 331 332 333 334 331 325 319 318 316 315 317 315 310 315 322 318 316 322 322 319 319 319 318 317 317 316 316 315 316 317 318 317 317 316 316 316 315 315 315 315 315 315 315 315 315 315 315 315 315 314 313 311 310 309 308 306 305 304 302 300 298 294 290 288 286 285 283 283 284 285 285 284 283 282 281 281 279
337 339 338 339 342 341 336 333 332 330 331 334 334 328 322 319 316 314 314 316 313 311 316 320 317 318 322 322 320 320 320 318 318 317 317 317 317 318 318 318 317 317 317 317 316 316 317 317 317 317 317 317 317 317 317 316 316 315 314 313 312 311 310 308 307 305 303 300 298 295 292 288 286 284 283 284 285 286 286 286 285 284 283 282 280 278
334 337 336 335 341 343 336 332 331 330 331 334 332 325 320 315 312 312 314 315 314 314 318 318 318 321 323 321 321 321 319 318 318 318 318 318 318 319 319 319 318 318 318 318 318 318 319 319 319 319 319 319 319 318 318 317 317 316 315 315 314 312 311 309 307 305 303 300 297 294 290 287 285 284 285 286 287 287 286 286 285 284 282 281 279 277
332 334 334 332 337 341 335 331 331 331 331 333 329 323 317 311 310 313 316 317 317 318 319 318 319 323 325 322 321 320 319 318 319 320 319 319 319 320 320 320 319 319 319 319 319 320 320 320 320 321 321 321 320 319 319 319 318 318 318 317 316 314 313 311 309 307 304 301 297 294 291 289 288 288 288 288 287 286 285 285 284 283 282 281 280 278
331 332 332 330 333 338 334 330 332 332 332 333 327 320 317 315 316 318 320 321 320 319 319 319 321 325 324 322 321 320 320 320 321 320 320 320 321 321 321 320 320 320 320 321 321 321 322 322 322 322 322 322 321 321 321 321 320 320 320 319 318 317 315 313 311 309 306 303 299 296 294 292 290 289 287 286 285 284 284 283 283 282 282 281 280 278
330 330 331 328 330 335 332 329 331 333 333 332 326 321 322 323 322 322 322 323 322 320 320 321 324 324 323 321 322 322 322 322 321 320 320 322 322 321 321 320 321 321 322 322 323 323 323 324 324 324 323 322 322 322 323 323 323 323 323 322 321 319 318 316 314 312 309 306 302 298 294 291 288 286 285 284 284 284 284 283 283 283 282 281 280 278
330 329 329 327 328 331 331 328 329 333 335 332 326 325 328 328 325 323 324 326 324 322 321 323 324 323 322 323 324 324 323 322 321 321 322 323 322 321 321 322 322 323 323 323 324 324 325 325 325 325 324 324 324 324 325 325 326 326 325 324 323 322 321 320 318 316 313 310 305 300 295 291 288 287 286 286 286 286 285 285 284 284 282 280 278 276
330 328 328 327 327 329 329 328 327 332 336 332 327 328 330 329 327 325 326 328 325 322 322 323 323 323 324 325 325 324 324 323 323 323 323 322 322 322 322 323 323 324 324 324 325 326 326 326 326 325 325 325 326 326 327 328 328 328 328 327 327 326 325 324 323 321 318 315 310 305 299 295 292 291 290 289 289 288 288 287 285 284 282 280 277 276
330 328 327 326 327 327 328 328 327 330 335 331 327 330 331 329 328 326 327 329 325 322 322 323 323 324 324 324 324 325 325 325 324 323 323 322 323 323 323 324 324 324 325 326 327 327 327 327 327 326 327 327 327 328 329 330 330 331 331 331 331 330 329 328 327 325 323 320 315 311 306 302 299 296 295 293 292 290 289 287 286 284 281 279 277 276
330 329 327 327 328 327 327 329 328 329 332 329 327 329 330 328 328 326 327 330 326 323 323 324 324 325 324 325 326 326 326 325 324 323 323 324 324 324 325 325 325 326 327 328 328 328 328 328 328 327 328 328 329 330 331 332 333 334 335 335 335 334 333 332 331 330 328 325 322 318 314 310 305 302 299 296 293 291 289 287 285 283 281 280 279 278
330 330 328 328 328 327 327 329 329 330 332 329 327 328 328 328 328 327 328 330 327 324 325 325 325 325 326 326 327 326 325 325 324 323 324 325 325 325 325 326 327 327 328 329 329 329 329 329 328 328 329 330 330 331 332 334 335 337 338 339 339 338 337 337 336 335 333 330 327 323 319 315 310 305 301 298 295 293 290 287 285 283 282 282 281 280
330 329 330 330 329 327 327 329 330 330 331 329 328 328 328 328 329 328 328 329 328 326 326 326 326 327 327 327 327 325 325 325 326 326 326 326 325 325 326 327 328 329 329 329 329 330 330 329 329 329 330 331 331 332 334 335 337 339 341 342 343 342 341 341 340 339 337 335 331 327 322 318 313 308 305 301 298 295 292 290 288 286 285 284 283 283
329 328 330 330 328 327 327 328 329 330 330 329 328 328 328 329 330 329 329 329 328 327 327 327 327 328 328 327 327 326 326 326 328 328 327 326 326 327 327 328 329 329 329 330 330 331 330 330 330 331 331 331 332 334 335 337 339 341 343 345 346 346 345 344 344 343 341 339 335 330 325 320 316 312 308 305 302 299 296 293 291 290 289 288 287 286
329 328 329 329 327 326 326 327 328 329 329 329 328 328 328 329 330 330 329 329 328 328 328 328 328 328 328 328 328 327 327 328 328 328 327 327 328 328 329 329 330 330 330 331 332 331 331 331 331 332 332 332 334 335 337 339 340 342 344 347 348 349 348 348 347 346 345 342 339 334 329 324 320 315 311 308 304 301 299 296 295 293 292 290 289 288
328 327 329 328 326 325 326 327 327 328 330 330 328 327 328 329 330 330 329 329 329 329 329 329 329 329 329 329 329 329 329 329 328 328 328 328 329 329 330 330 330 331 331 332 333 332 332 332 333 333 333 333 335 337 338 339 341 342 345 348 351 351 351 351 350 349 348 346 344 340 336 331 326 321 316 312 309 305 302 300 298 296 294 293 291 290
327 326 327 327 325 324 327 328 326 326 329 330 327 327 328 329 330 330 329 329 329 329 328 329 329 330 330 330 330 330 329 329 328 328 329 329 330 330 330 331 331 332 332 333 333 333 333 333 334 334 334 334 336 338 339 340 341 343 346 349 352 354 354 353 353 352 351 350 348 346 342 338 334 329 324 320 315 311 308 305 303 300 298 296 294 293
327 327 326 325 324 323 326 328 326 325 329 329 327 327 328 329 330 330 329 329 329 329 329 329 330 331 331 331 330 330 330 329 329 329 330 330 330 330 331 332 332 332 333 334 334 334 334 334 335 335 334 335 337 338 339 340 341 343 346 349 352 355 356 356 355 354 353 352 351 350 347 345 342 338 334 329 324 320 315 312 309 305 303 301 299 297
328 329 326 324 323 322 326 327 324 325 329 328 326 327 329 330 330 330 329 329 329 329 330 330 331 331 331 331 331 330 330 330 330 330 330 330 330 331 332 332 333 334 335 336 336 335 335 335 336 335 335 336 337 339 340 341 342 344 346 349 352 355 357 358 357 356 355 354 353 352 350 348 347 344 342 339 335 331 326 322 318 315 311 309 307 305
329 329 325 322 322 322 325 325 322 325 329 327 325 327 329 330 330 330 329 329 329 329 330 330 330 331 331 331 331 330 330 330 330 330 331 331 331 332 332 333 334 335 336 337 337 336 336 336 337 336 336 336 338 339 340 341 342 344 346 348 351 354 356 358 358 358 358 356 355 353 351 350 348 347 345 343 341 338 335 332 329 325 322 320 318 315
330 329 324 322 322 323 325 324 322 325 328 327 325 328 329 330 330 329 329 329 329 329 330 330 330 331 331 331 331 330 330 330 331 331 331 331 332 332 333 334 335 336 337 338 337 337 336 337 337 337 336 337 338 340 341 342 343 345 346 348 351 353 355 357 358 358 358 358 357 355 353 352 350 347 346 344 342 340 338 336 334 331 328 327 326 323
330 329 324 321 322 323 324 323 322 325 327 326 326 328 329 329 329 329 328 329 329 330 330 330 330 331 331 331 331 330 330 331 331 332 332 332 332 333 334 335 336 337 338 338 338 338 338 338 338 337 337 337 339 340 341 342 344 345 347 348 350 352 354 355 356 357 357 358 357 357 355 354 352 349 347 345 343 341 339 337 335 333 331 329 328 325
330 328 323 322 323 324 323 322 322 325 326 326 327 328 329 329 329 328 329 329 329 330 329 330 331 331 331 331 331 331 331 332 332 332 332 333 333 334 335 336 337 338 339 339 339 339 338 339 339 338 337 338 339 340 341 343 344 345 347 348 350 351 352 354 355 356 356 357 357 356 356 354 353 352 350 347 345 342 340 338 336 335 333 330 328 327
330 327 323 322 323 324 323 322 323 324 326 326 327 328 329 329 329 329 329 329 330 330 330 330 331 331 331 331 331 331 332 332 332 333 333 333 334 335 336 337 338 339 340 340 340 340 339 339 339 339 338 338 339 340 342 343 344 345 347 348 349 351 352 353 354 354 355 355 356 356 356 355 354 353 351 350 347 344 341 339 337 336 335 332 330 328
329 326 323 322 322 324 323 322 323 324 326 327 327 328 329 329 329 329 330 330 330 330 330 331 331 331 332 332 331 331 332 332 333 333 334 334 335 336 337 337 338 340 341 342 341 341 340 340 340 339 339 338 339 340 341 342 344 345 346 348 349 350 351 352 352 353 354 354 355 355 355 355 354 353 352 351 350 348 345 341 338 336 336 335 333 330
Height
5754 5753 5752 5751 5750 5749 5747 5746 5745 5743 5742 5740 5738 5736 5734 5734 5733 5731 5730 5727 5725 5723 5720 5718 5716 5713 5710 5708 5706 5704 5701 5699 5697 5695 5693 5691 5689 5687 5684 5682 5680 5678 5676 5673 5671 5668 5666 5663 5660 5658 5655 5652 5650 5647 5644 5641 5639 5636 5633 5631 5628 5625 5622 5619 5617 5614 5611 5608 5605 5602 5600 5597 5594 5593 5591 5589 5587 5586 5583 5581 5579 5577 5575 5573 5571 5570
5752 5751 5750 5749 5748 5746 5745 5743 5742 5740 5739 5737 5735 5733 5731 5730 5729 5727 5725 5722 5719 5718 5716 5713 5711 5708 5705 5704 5702 5699 5697 5695 5693 5691 5689 5687 5685 5683 5680 5678 5676 5674 5672 5669 5667 5664 5662 5659 5656 5653 5651 5648 5645 5642 5640 5637 5634 5631 5628 5625 5622 5619 5617 5614 5611 5608 5605 5602 5599 5596 5593 5590 5587 5584 5582 5580 5578 5577 5575 5572 5570 5567 5565 5563 5561 5560
5750 5749 5748 5747 5745 5744 5742 5740 5739 5737 5735 5733 5731 5729 5726 5725 5724 5722 5720 5717 5715 5713 5711 5709 5706 5703 5702 5700 5698 5696 5694 5691 5689 5687 5685 5683 5681 5679 5677 5675 5672 5670 5668 5666 5663 5660 5658 5655 5652 5650 5647 5644 5641 5638 5635 5632 5629 5626 5623 5620 5617 5614 5611 5608 5606 5603 5599 5596 5593 5590 5587 5584 5581 5577 5575 5572 5570 5569 5566 5564 5561 5559 5556 5553 5551 5550
5748 5747 5745 5744 5742 5741 5739 5737 5735 5733 5731 5729 5727 5725 5722 5721 5719 5718 5716 5713 5711 5709 5707 5705 5702 5699 5698 5697 5694 5692 5690 5688 5686 5684 5682 5680 5678 5676 5674 5672 5669 5667 5665 5662 5660 5657 5654 5652 5649 5646 5643 5640 5637 5634 5631 5628 5625 5622 5619 5616 5612 5609 5606 5603 5600 5597 5594 5591 5588 5584 5581 5578 5575 5571 5568 5566 5563 5561 5559 5556 5554 5551 5548 5545 5542 5541
5746 5744 5743 5741 5739 5738 5736 5734 5732 5729 5727 5725 5723 5721 5719 5717 5716 5714 5712 5710 5708 5705 5704 5702 5699 5696 5695 5693 5691 5689 5687 5685 5683 5680 5679 5677 5675 5673 5671 5669 5667 5664 5661 5659 5656 5654 5651 5648 5645 5642 5639 5636 5633 5630 5627 5624 5620 5617 5614 5611 5607 5604 5601 5598 5595 5591 5588 5585 5582 5579 5575 5572 5569 5565 5562 5559 5556 5553 5551 5549 5546 5543 5540 5536 5533 5532
5743 5742 5740 5738 5736 5734 5732 5730 5728 5726 5724 5722 5720 5718 5716 5714 5712 5711 5709 5706 5704 5702 5700 5698 5696 5694 5692 5690 5688 5686 5684 5682 5680 5678 5676 5675 5673 5671 5668 5666 5663 5661 5658 5655 5652 5649 5646 5643 5640 5637 5634 5631 5628 5625 5622 5619 5615 5612 5608 5605 5602 5598 5595 5591 5588 5585 5582 5578 5575 5572 5568 5565 5561 5558 5554 5551 5548 5545 5543 5540 5537 5535 5531 5527 5524 5523
5741 5739 5737 5735 5733 5731 5729 5727 5725 5723 5721 5719 5717 5715 5713 5711 5709 5707 5705 5703 5701 5699 5697 5696 5695 5693 5691 5688 5687 5684 5682 5680 5678 5676 5674 5672 5670 5668 5665 5662 5659 5657 5654 5651 5647 5645 5642 5639 5636 5632 5629 5626 5623 5619 5616 5613 5609 5606 5602 5599 5595 5592 5588 5584 5581 5577 5574 5570 5567 5564 5560 5557 5553 5550 5546 5542 5539 5536 5533 5531 5528 5525 5522 5518 5515 5513
5739 5737 5735 5733 5731 5729 5727 5724 5722 5721 5719 5717 5715 5713 5711 5709 5706 5704 5702 5700 5698 5696 5695 5693 5692 5691 5688 5686 5684 5682 5680 5678 5676 5673 5671 5669 5666 5664 5661 5659 5656 5653 5650 5647 5643 5640 5637 5634 5630 5627 5624 5621 5617 5614 5610 5607 5603 5600 5596 5593 5589 5585 5581 5577 5573 5570 5566 5562 5559 5555 5552 5548 5544 5541 5538 5534 5530 5527 5524 5521 5519 5516 5512 5509 5505 5502
5737 5735 5733 5731 5729 5727 5725 5723 5721 5720 5718 5715 5713 5711 5709 5707 5704 5702 5700 5698 5697 5694 5692 5690 5688 5687 5685 5682 5681 5680 5677 5675 5673 5670 5668 5665 5663 5660 5657 5654 5651 5648 5645 5642 5639 5635 5632 5629 5625 5622 5618 5615 5612 5608 5605 5601 5597 5594 5590 5586 5583 5579 5574 5570 5566 5562 5559 5555 5551 5547 5543 5540 5536 5532 5528 5525 5521 5517 5514 5511 5509 5506 5502 5499 5495 5492
5735 5733 5731 5729 5727 5725 5723 5722 5720 5718 5716 5714 5712 5710 5708 5705 5703 5701 5699 5697 5695 5693 5691 5689 5686 5684 5683 5680 5678 5677 5674 5672 5670 5667 5665 5662 5659 5656 5653 5650 5646 5643 5640 5637 5634 5630 5627 5623 5620 5616 5613 5609 5605 5602 5598 5595 5591 5587 5583 5579 5576 5572 5567 5563 5559 5555 5551 5547 5543 5538 5534 5531 5526 5523 5519 5516 5512 5507 5504 5501 5499 5496 5493 5489 5485 5481
5733 5731 5730 5728 5726 5724 5723 5721 5719 5717 5714 5712 5711 5708 5706 5704 5702 5700 5698 5695 5693 5691 5689 5687 5684 5682 5680 5678 5676 5673 5670 5668 5666 5664 5661 5658 5655 5652 5649 5645 5642 5639 5635 5632 5629 5625 5621 5618 5614 5610 5607 5603 5599 5595 5591 5588 5584 5580 5576 5572 5569 5564 5560 5556 5551 5547 5543 5538 5534 5530 5525 5522 5517 5513 5510 5506 5502 5498 5494 5491 5488 5485 5482 5479 5475 5471
5732 5731 5729 5727 5725 5724 5722 5720 5718 5716 5713 5711 5709 5706 5704 5702 5701 5699 5696 5694 5692 5689 5687 5685 5682 5679 5676 5674 5671 5669 5666 5663 5661 5659 5657 5654 5651 5648 5644 5641 5637 5634 5630 5627 5623 5620 5616 5612 5607 5604 5600 5596 5592 5588 5584 5580 5576 5572 5568 5564 5561 5557 5551 5547 5543 5539 5534 5530 5525 5521 5516 5512 5508 5504 5500 5496 5492 5488 5484 5481 5478 5475 5472 5468 5464 5460
5731 5729 5727 5726 5724 5722 5720 5718 5716 5714 5712 5709 5707 5705 5703 5701 5699 5698 5696 5693 5691 5687 5684 5682 5680 5677 5673 5670 5668 5665 5662 5659 5657 5654 5652 5649 5646 5643 5640 5636 5632 5628 5625 5621 5617 5614 5610 5606 5601 5597 5593 5589 5585 5581 5577 5573 5568 5564 5560 5555 5552 5548 5543 5538 5534 5529 5525 5520 5515 5511 5506 5502 5497 5493 5489 5486 5482 5477 5474 5470 5467 5464 5461 5457 5453 5449
5730 5728 5726 5724 5722 5720 5718 5716 5714 5712 5710 5708 5706 5704 5702 5700 5698 5696 5694 5691 5689 5686 5682 5679 5677 5674 5671 5667 5665 5663 5659 5655 5653 5650 5647 5644 5641 5638 5635 5631 5627 5623 5619 5615 5612 5608 5604 5600 5595 5591 5587 5583 5578 5574 5570 5565 5560 5556 5552 5547 5543 5539 5534 5528 5524 5519 5515 5510 5505 5500 5495 5491 5486 5481 5477 5474 5470 5466 5462 5459 5456 5453 5450 5446 5442 5438
5728 5727 5725 5723 5720 5718 5716 5714 5712 5710 5708 5706 5704 5702 5700 5697 5695 5692 5689 5687 5685 5684 5681 5677 5674 5672 5668 5663 5661 5659 5656 5652 5649 5646 5643 5640 5636 5633 5630 5626 5621 5617 5613 5609 5605 5601 5597 5593 5588 5584 5580 5576 5571 5567 5562 5558 5553 5548 5543 5538 5534 5529 5524 5518 5514 5509 5504 5499 5494 5489 5484 5479 5474 5469 5465 5461 5457 5453 5449 5446 5443 5440 5438 5435 5431 5427
5727 5725 5723 5721 5719 5716 5714 5712 5710 5708 5706 5703 5701 5699 5697 5694 5691 5689 5686 5683 5680 5679 5677 5675 5672 5670 5665 5660 5657 5655 5652 5648 5644 5641 5639 5636 5632 5628 5624 5620 5616 5612 5608 5603 5599 5595 5590 5586 5581 5577 5572 5568 5563 5559 5554 5550 5545 5540 5535 5530 5525 5520 5514 5509 5503 5498 5493 5488 5482 5477 5472 5467 5462 5457 5453 5448 5444 5440 5436 5433 5430 5427 5425 5422 5419 5415
5725 5723 5721 5718 5716 5714 5712 5709 5707 5705 5703 5700 5698 5695 5693 5690 5688 5685 5682 5679 5676 5674 5673 5671 5669 5667 5663 5657 5654 5651 5648 5644 5640 5637 5635 5631 5627 5623 5619 5615 5611 5606 5602 5597 5593 5588 5584 5579 5574 5569 5565 5560 5555 5551 5546 5542 5536 5531 5526 5521 5516 5511 5505 5499 5493 5488 5482 5477 5472 5467 5461 5455 5450 5445 5440 5435 5430 5426 5423 5420 5416 5413 5411 5409 5406 5403
5723 5721 5719 5716 5714 5712 5710 5707 5705 5702 5699 5697 5694 5691 5689 5686 5683 5680 5678 5675 5672 5669 5667 5666 5665 5663 5659 5653 5650 5648 5644 5640 5635 5632 5629 5626 5621 5617 5613 5609 5604 5600 5595 5591 5586 5581 5576 5572 5566 5562 5557 5552 5547 5542 5538 5533 5527 5522 5517 5512 5506 5501 5495 5489 5482 5477 5471 5465 5460 5455 5450 5445 5440 5435 5429 5423 5418 5413 5410 5406 5403 5400 5397 5395 5392 5390
5721 5719 5717 5714 5712 5710 5707 5705 5702 5700 5697 5694 5691 5688 5685 5682 5678 5676 5673 5671 5668 5664 5661 5660 5660 5660 5655 5648 5645 5644 5639 5635 5631 5627 5624 5620 5615 5611 5607 5602 5598 5593 5588 5583 5578 5573 5569 5564 5559 5554 5549 5543 5538 5533 5528 5524 5518 5513 5508 5502 5496 5491 5485 5478 5471 5465 5459 5454 5448 5443 5438 5433 5427 5423 5418 5412 5407 5401 5397 5393 5390 5387 5383 5381 5378 5376
5720 5717 5715 5712 5710 5707 5705 5703 5700 5698 5695 5691 5689 5686 5683 5679 5675 5673 5670 5667 5664 5660 5657 5653 5653 5656 5653 5644 5640 5638 5633 5628 5624 5621 5618 5614 5609 5605 5600 5595 5590 5586 5581 5576 5571 5566 5561 5557 5551 5546 5541 5535 5530 5524 5519 5514 5508 5503 5497 5492 5486 5479 5473 5467 5460 5453 5447 5441 5435 5429 5424 5419 5413 5409 5404 5400 5394 5389 5384 5380 5378 5374 5370 5366 5364 5361
5717 5715 5713 5710 5708 5705 5703 5700 5698 5696 5693 5690 5687 5683 5680 5677 5673 5669 5667 5664 5660 5656 5654 5648 5646 5652 5651 5641 5635 5632 5627 5621 5617 5614 5611 5607 5602 5598 5593 5587 5582 5578 5573 5568 5563 5558 5553 5549 5543 5538 5532 5526 5521 5515 5509 5503 5497 5492 5486 5480 5474 5467 5461 5454 5447 5440 5433 5427 5420 5415 5409 5403 5398 5393 5389 5385 5380 5375 5370 5366 5364 5362 5357 5353 5350 5347
5715 5713 5711 5708 5706 5703 5701 5698 5695 5693 5690 5687 5684 5681 5678 5674 5669 5665 5662 5660 5656 5653 5651 5645 5640 5646 5647 5636 5630 5627 5621 5615 5611 5606 5603 5599 5595 5591 5586 5580 5575 5570 5565 5560 5555 5550 5545 5540 5535 5529 5523 5517 5511 5505 5499 5493 5486 5480 5474 5468 5461 5454 5448 5441 5433 5426 5419 5412 5406 5400 5393 5387 5381 5377 5372 5368 5364 5359 5354 5351 5350 5348 5343 5339 5336 5333
5713 5711 5709 5707 5704 5701 5698 5695 5692 5690 5688 5684 5681 5677 5674 5670 5666 5662 5658 5655 5652 5648 5647 5640 5635 5639 5640 5631 5625 5622 5615 5610 5605 5600 5596 5592 5588 5583 5578 5573 5567 5562 5557 5552 5547 5542 5536 5530 5525 5519 5513 5507 5501 5494 5488 5482 5475 5468 5462 5455 5447 5440 5434 5427 5419 5412 5404 5397 5390 5384 5377 5371 5366 5361 5357 5352 5348 5343 5338 5336 5335 5333 5329 5325 5322 5320
5711 5709 5707 5705 5703 5699 5696 5693 5690 5687 5685 5681 5677 5673 5670 5666 5663 5659 5654 5651 5647 5645 5643 5635 5629 5632 5632 5625 5620 5616 5609 5604 5599 5594 5589 5585 5581 5576 5570 5565 5559 5554 5549 5544 5538 5532 5527 5521 5515 5509 5503 5497 5490 5484 5477 5470 5462 5455 5448 5441 5433 5426 5419 5411 5403 5395 5387 5380 5374 5368 5361 5355 5350 5345 5340 5336 5332 5328 5323 5321 5321 5318 5314 5311 5309 5306
5709 5706 5704 5702 5700 5697 5694 5691 5687 5685 5682 5678 5675 5670 5665 5662 5658 5654 5650 5646 5642 5640 5637 5629 5624 5625 5624 5620 5615 5609 5602 5598 5595 5589 5583 5578 5573 5568 5563 5557 5552 5546 5541 5535 5529 5524 5518 5512 5506 5499 5493 5486 5479 5472 5465 5457 5449 5440 5432 5423 5414 5405 5397 5389 5381 5373 5366 5360 5355 5351 5345 5339 5334 5328 5323 5319 5316 5312 5309 5308 5306 5304 5300 5297 5295 5293
5707 5704 5702 5699 5696 5692 5690 5687 5683 5681 5678 5675 5671 5666 5661 5657 5653 5649 5645 5641 5637 5633 5630 5625 5619 5618 5618 5615 5608 5602 5596 5592 5589 5583 5577 5571 5565 5560 5554 5549 5544 5538 5532 5526 5521 5515 5510 5503 5497 5490 5483 5476 5469 5461 5453 5445 5436 5426 5415 5406 5396 5386 5377 5369 5362 5355 5349 5343 5338 5334 5330 5324 5318 5312 5307 5303 5299 5295 5294 5294 5293 5290 5286 5284 5282 5280
5705 5702 5699 5697 5693 5689 5686 5683 5679 5676 5674 5671 5668 5664 5658 5652 5648 5645 5640 5637 5633 5626 5623 5622 5615 5609 5612 5610 5602 5596 5591 5585 5581 5576 5570 5564 5558 5552 5546 5541 5536 5530 5524 5518 5512 5507 5501 5495 5488 5481 5474 5466 5459 5450 5441 5431 5421 5411 5401 5392 5383 5374 5365 5357 5349 5342 5335 5329 5323 5319 5315 5309 5303 5297 5292 5288 5284 5281 5280 5280 5279 5276 5273 5271 5269 5267
5702 5700 5697 5695 5692 5687 5683 5680 5676 5672 5670 5667 5664 5660 5655 5649 5644 5640 5636 5633 5629 5620 5617 5618 5611 5602 5603 5602 5594 5589 5584 5579 5574 5568 5562 5556 5550 5544 5539 5534 5528 5522 5516 5510 5504 5498 5492 5485 5479 5472 5464 5456 5447 5438 5429 5419 5409 5399 5389 5380 5371 5363 5355 5346 5337 5329 5322 5315 5309 5304 5300 5294 5288 5283 5278 5274 5271 5269 5268 5267 5265 5263 5260 5259 5257 5255
5697 5696 5693 5691 5690 5686 5680 5676 5673 5669 5666 5664 5660 5655 5650 5645 5639 5635 5632 5629 5625 5617 5612 5612 5607 5600 5596 5592 5587 5582 5576 5571 5566 5560 5554 5548 5542 5537 5533 5527 5521 5514 5508 5502 5495 5489 5481 5474 5468 5461 5453 5444 5435 5425 5416 5406 5397 5387 5377 5367 5358 5350 5341 5333 5324 5316 5308 5301 5295 5289 5284 5279 5273 5268 5264 5260 5259 5258 5256 5254 5252 5250 5249 5247 5246 5244
5693 5691 5689 5687 5686 5683 5678 5673 5670 5665 5662 5660 5656 5650 5645 5640 5635 5631 5629 5626 5620 5613 5608 5604 5600 5598 5593 5585 5579 5575 5569 5563 5558 5553 5547 5540 5534 5530 5525 5518 5511 5505 5498 5492 5485 5479 5472 5465 5457 5449 5441 5432 5422 5412 5402 5392 5382 5372 5362 5353 5344 5336 5327 5318 5310 5302 5294 5286 5280 5274 5269 5263 5258 5254 5251 5249 5248 5246 5244 5242 5240 5239 5237 5236 5234 5233
5691 5687 5684 5681 5681 5680 5675 5670 5667 5662 5658 5655 5651 5645 5640 5634 5630 5627 5624 5621 5615 5608 5604 5598 5593 5592 5589 5581 5573 5567 5561 5555 5550 5544 5539 5533 5527 5522 5516 5509 5503 5496 5490 5483 5477 5470 5464 5456 5448 5439 5430 5420 5410 5399 5388 5378 5368 5358 5349 5339 5330 5321 5313 5303 5294 5286 5278 5271 5264 5258 5253 5248 5244 5242 5241 5239 5237 5234 5232 5231 5230 5228 5226 5225 5224 5223
5688 5684 5681 5677 5675 5675 5670 5666 5663 5659 5654 5650 5645 5639 5635 5630 5626 5623 5620 5616 5610 5603 5598 5593 5588 5584 5581 5575 5569 5562 5555 5547 5542 5536 5531 5526 5521 5514 5507 5501 5494 5488 5481 5475 5469 5462 5455 5447 5439 5429 5419 5409 5399 5388 5376 5365 5355 5346 5336 5326 5316 5306 5297 5287 5278 5270 5263 5256 5250 5244 5239 5236 5233 5232 5230 5228 5226 5224 5222 5221 5219 5218 5216 5215 5214 5213
5686 5682 5678 5673 5669 5669 5665 5660 5658 5654 5650 5646 5640 5634 5630 5627 5622 5618 5615 5611 5605 5597 5592 5587 5583 5579 5574 5568 5562 5557 5550 5543 5536 5530 5524 5519 5514 5507 5501 5494 5486 5480 5473 5466 5460 5453 5445 5437 5428 5418 5408 5397 5386 5375 5364 5353 5343 5333 5323 5313 5302 5292 5282 5273 5264 5256 5249 5242 5237 5232 5228 5225 5223 5221 5219 5217 5215 5214 5212 5211 5210 5208 5207 5206 5205 5204
5683 5679 5675 5670 5665 5664 5661 5655 5652 5650 5646 5639 5634 5629 5625 5622 5616 5611 5609 5606 5600 5592 5586 5581 5578 5573 5567 5561 5555 5550 5544 5538 5531 5524 5518 5512 5506 5500 5494 5487 5480 5473 5466 5459 5452 5444 5436 5427 5418 5408 5398 5387 5376 5365 5355 5345 5334 5323 5313 5301 5290 5279 5269 5259 5251 5243 5237 5231 5225 5221 5217 5215 5212 5210 5209 5207 5206 5204 5203 5202 5201 5199 5198 5198 5197 5196
5681 5676 5672 5668 5662 5658 5656 5651 5647 5645 5642 5634 5628 5625 5621 5616 5611 5606 5603 5602 5595 5588 5582 5577 5572 5566 5561 5556 5550 5544 5538 5531 5524 5518 5512 5506 5499 5492 5486 5480 5473 5467 5460 5453 5445 5436 5427 5418 5409 5399 5388 5377 5367 5357 5347 5338 5328 5317 5305 5293 5280 5269 5258 5249 5240 5232 5226 5220 5215 5211 5208 5205 5203 5202 5200 5199 5198 5196 5195 5194 5193 5191 5190 5190 5189 5188
5678 5674 5669 5665 5660 5655 5651 5647 5642 5639 5638 5631 5624 5620 5616 5611 5607 5601 5599 5597 5591 5583 5578 5573 5567 5561 5555 5550 5545 5539 5532 5525 5517 5510 5505 5499 5492 5485 5479 5472 5466 5460 5452 5445 5436 5427 5418 5409 5398 5387 5377 5367 5357 5348 5339 5330 5320 5309 5297 5285 5272 5260 5250 5241 5232 5225 5218 5212 5207 5203 5200 5198 5196 5195 5194 5192 5191 5190 5188 5187 5186 5184 5183 5183 5182 5181
5674 5671 5666 5661 5657 5651 5646 5643 5638 5634 5633 5627 5619 5615 5611 5606 5602 5596 5593 5591 5585 5577 5573 5568 5562 5557 5551 5545 5540 5534 5527 5521 5513 5505 5498 5492 5485 5478 5471 5464 5458 5451 5444 5436 5428 5418 5409 5398 5388 5377 5368 5359 5350 5341 5332 5323 5314 5303 5291 5278 5266 5255 5244 5235 5227 5219 5213 5207 5202 5199 5196 5193 5191 5190 5188 5187 5185 5184 5182 5181 5179 5178 5177 5176 5175 5174
5671 5667 5662 5657 5653 5648 5641 5637 5633 5629 5627 5621 5615 5611 5606 5602 5598 5591 5586 5584 5579 5572 5566 5561 5555 5550 5545 5539 5533 5528 5522 5517 5511 5502 5493 5486 5479 5472 5465 5458 5450 5442 5434 5427 5420 5412 5402 5392 5382 5371 5362 5353 5344 5335 5326 5317 5307 5297 5285 5273 5261 5250 5240 5231 5223 5215 5209 5203 5199 5195 5192 5190 5188 5186 5184 5182 5180 5178 5177 5175 5174 5172 5171 5170 5169 5167
5667 5663 5658 5653 5649 5644 5637 5632 5628 5624 5621 5616 5610 5605 5601 5596 5592 5586 5580 5577 5572 5566 5561 5555 5548 5543 5537 5531 5526 5520 5514 5510 5505 5498 5489 5481 5474 5467 5460 5453 5446 5437 5429 5420 5412 5404 5395 5385 5376 5365 5355 5346 5338 5330 5321 5312 5301 5291 5280 5268 5257 5246 5237 5228 5220 5213 5206 5201 5196 5192 5189 5187 5184 5182 5180 5178 5176 5174 5172 5170 5169 5167 5166 5164 5163 5161
5662 5658 5654 5650 5645 5640 5634 5629 5624 5620 5615 5610 5605 5600 5595 5590 5585 5580 5574 5570 5565 5559 5554 5548 5542 5537 5531 5525 5519 5512 5505 5499 5495 5490 5483 5476 5469 5462 5454 5447 5441 5434 5426 5417 5408 5398 5388 5378 5368 5359 5350 5341 5333 5325 5315 5306 5296 5286 5276 5265 5254 5244 5235 5227 5219 5212 5205 5200 5195 5191 5187 5184 5181 5179 5176 5174 5172 5170 5168 5166 5164 5162 5160 5159 5157 5155
5658 5654 5650 5646 5640 5636 5631 5625 5620 5616 5612 5605 5599 5594 5589 5584 5580 5574 5568 5564 5559 5553 5548 5542 5536 5531 5525 5518 5512 5505 5499 5492 5486 5481 5476 5470 5463 5456 5449 5441 5433 5426 5418 5410 5401 5392 5382 5371 5360 5351 5343 5335 5327 5318 5309 5301 5292 5282 5273 5263 5252 5243 5234 5225 5218 5211 5205 5199 5194 5189 5185 5182 5178 5176 5173 5171 5168 5166 5163 5161 5159 5157 5155 5153 5151 5149
5653 5648 5645 5641 5635 5630 5626 5620 5614 5611 5607 5601 5594 5589 5584 5579 5574 5569 5563 5557 5552 5547 5542 5537 5531 5525 5518 5512 5506 5499 5493 5486 5480 5474 5468 5462 5456 5450 5443 5436 5428 5420 5412 5403 5394 5384 5374 5364 5354 5345 5337 5329 5321 5313 5305 5296 5288 5279 5270 5260 5250 5241 5232 5224 5217 5210 5204 5198 5193 5188 5184 5180 5176 5173 5170 5167 5165 5162 5159 5156 5154 5152 5149 5147 5145 5143
5649 5643 5640 5636 5631 5625 5621 5615 5608 5604 5601 5596 5590 5584 5579 5574 5568 5563 5557 5552 5547 5542 5537 5531 5526 5520 5513 5507 5500 5494 5488 5481 5475 5469 5462 5456 5450 5443 5437 5430 5423 5415 5406 5398 5388 5378 5368 5357 5348 5340 5332 5325 5317 5309 5301 5292 5284 5276 5267 5258 5249 5240 5231 5223 5216 5209 5203 5198 5192 5187 5182 5178 5174 5171 5167 5164 5161 5158 5155 5152 5149 5147 5144 5141 5139 5137
5646 5640 5635 5631 5626 5620 5616 5611 5604 5597 5594 5589 5584 5578 5573 5568 5562 5557 5551 5546 5541 5536 5530 5525 5519 5513 5507 5501 5495 5488 5483 5476 5470 5463 5457 5450 5444 5437 5431 5424 5416 5408 5400 5391 5382 5372 5361 5352 5343 5335 5327 5320 5313 5305 5298 5290 5281 5273 5264 5256 5247 5239 5230 5222 5215 5209 5203 5197 5192 5186 5181 5177 5173 5169 5165 5162 5158 5155 5151 5148 5145 5142 5139 5137 5134 5132
5641 5636 5631 5627 5622 5616 5612 5607 5600 5594 5589 5582 5577 5573 5567 5562 5556 5550 5545 5540 5535 5530 5524 5518 5513 5507 5501 5496 5490 5484 5478 5471 5465 5459 5452 5446 5439 5432 5425 5418 5410 5402 5394 5385 5375 5365 5355 5346 5338 5330 5322 5316 5309 5302 5294 5287 5279 5271 5263 5254 5246 5238 5230 5223 5215 5209 5202 5197 5191 5186 5181 5176 5171 5167 5163 5159 5156 5152 5149 5145 5142 5139 5135 5132 5130 5127
5637 5632 5627 5622 5618 5612 5608 5603 5595 5590 5586 5578 5570 5566 5562 5556 5551 5545 5539 5534 5530 5524 5519 5513 5507 5502 5496 5490 5484 5478 5472 5466 5460 5454 5447 5441 5434 5427 5420 5413 5405 5397 5388 5379 5369 5359 5350 5341 5333 5325 5318 5311 5305 5298 5291 5283 5276 5268 5261 5253 5245 5237 5230 5222 5215 5208 5202 5196 5191 5185 5180 5175 5170 5166 5161 5157 5153 5150 5146 5143 5139 5135 5132 5128 5126 5123
5633 5628 5621 5616 5612 5607 5603 5598 5590 5586 5582 5575 5567 5562 5556 5551 5546 5540 5535 5530 5525 5519 5514 5508 5502 5497 5491 5485 5479 5473 5467 5461 5455 5449 5443 5436 5429 5422 5415 5408 5400 5392 5383 5374 5365 5355 5345 5336 5328 5321 5314 5307 5301 5294 5287 5280 5273 5266 5258 5251 5243 5236 5229 5222 5215 5208 5202 5196 5190 5184 5179 5174 5169 5164 5160 5155 5151 5147 5143 5140 5136 5133 5129 5125 5122 5119
5627 5622 5616 5611 5607 5602 5597 5592 5586 5581 5577 5571 5564 5559 5553 5547 5542 5537 5532 5526 5520 5514 5509 5504 5498 5492 5485 5480 5474 5468 5462 5456 5450 5444 5437 5431 5424 5418 5410 5402 5395 5386 5378 5370 5360 5351 5341 5332 5324 5317 5311 5304 5297 5291 5284 5277 5270 5263 5256 5249 5242 5234 5228 5221 5215 5208 5202 5196 5190 5184 5179 5173 5168 5163 5158 5154 5149 5145 5141 5137 5133 5130 5126 5122 5119 5116
5622 5617 5611 5605 5601 5597 5592 5586 5581 5576 5571 5565 5559 5554 5549 5544 5538 5533 5527 5521 5515 5510 5504 5498 5492 5487 5481 5475 5469 5463 5457 5451 5445 5439 5432 5426 5419 5413 5405 5397 5390 5382 5373 5365 5355 5346 5337 5328 5321 5314 5307 5301 5294 5288 5281 5274 5267 5261 5254 5247 5240 5233 5226 5220 5214 5208 5202 5196 5190 5184 5178 5173 5167 5162 5157 5152 5147 5143 5138 5134 5131 5127 5123 5118 5115 5112
5617 5612 5606 5599 5595 5592 5587 5580 5575 5570 5566 5560 5554 5549 5544 5538 5533 5527 5522 5516 5510 5504 5498 5492 5487 5481 5476 5470 5464 5458 5452 5446 5440 5434 5427 5421 5414 5407 5400 5393 5385 5377 5369 5360 5350 5340 5332 5324 5317 5310 5303 5297 5291 5284 5278 5271 5265 5259 5252 5245 5239 5232 5226 5219 5213 5207 5201 5195 5189 5183 5178 5172 5166 5161 5156 5151 5146 5141 5135 5130 5126 5123 5120 5116 5111 5107
5611 5606 5600 5594 5589 5586 5581 5574 5569 5564 5559 5554 5549 5543 5538 5532 5527 5521 5516 5510 5504 5499 5493 5487 5481 5475 5470 5464 5458 5453 5447 5441 5435 5429 5422 5415 5408 5402 5395 5388 5380 5373 5364 5355 5345 5336 5327 5319 5312 5306 5299 5293 5287 5281 5275 5269 5263 5256 5250 5244 5237 5231 5225 5218 5212 5206 5200 5194 5188 5183 5177 5171 5166 5160 5155 5150 5145 5140 5135 5129 5123 5118 5115 5113 5109 5104